Tracking 19563 objects as of 20-Mar-2019
HD Live streaming from Space Station
objects crossing your sky now

USA 270

Track USA 270 now!


NORAD ID: 41744
Int'l Code: 2016-052A
Perigee: 35,707.4 km
Apogee: 35,792.0 km
Inclination: 0.1 °
Period: 1,433.8 minutes
Semi major axis: 42120 km
RCS: Unknown
Launch date: August 19, 2016
Source: United States (US)
Launch site: AIR FORCE EASTERN TEST RANGE (AFETR)
aabbcc
Your satellite tracking list
Your tracking list is empty




NASA's NSSDC Master Catalog

Two Line Element Set (TLE):
1 41744U 16052A   19025.37598279 0.00000000  00000-0  00000-0 0    04
2 41744   0.0660  81.4477 0010036 341.5756  18.3895  1.00429136    06
Source of the keplerian elements: McCants